Location: Lafig�re
(44.4503°N, 4.0357°E)
Time: 14:57:05
(UTC+00:00)

Transit 2A Rocket - Pass Details

Date: 21 January 2021
Orbit: 594 x 908 km, 66.7° (Epoch: 06 March)

Event Time Altitude Azimuth Distance (km) Brightness Sun altitude
Rises 20:02:03 0° 336° (NNW) 2,953 8.4 -36.1°
Enters shadow 20:03:04 - 340° (NNW) 2,588 8.0 -36.3°
Reaches altitude 10° 20:04:50 10° 351° (N) 2,001 - -36.6°
Maximum altitude 20:08:21 22° 44° (NE) 1,325 - -37.2°
Drops below altitude 10° 20:11:46 10° 96° (E) 1,933 - -37.8°
Sets 20:14:23 0° 112° (ESE) 2,826 - -38.3°
